Flag for U.S.A. Weather past 2 weeks in Austin, Texas, U.S.A.

Now
91 °F

Passing clouds.


Feels Like: 97 °F
Forecast: 75 / 96 °F
Wind: No wind

Location: Camp Mabry / Austin City

Current Time: Aug 30, 2014 at 1:56:02 PM

Latest Report: Aug 30, 2014 at 12:51 PM


Visibility: 10 mi

Pressure: 29.90 "Hg

Humidity: 50%

Dew point: 70 °F

Location of AustinLocation

Historic Weather in Austin — Graph

°F

Austin temperature yesterday

Maximum temperature yesterday: 95 °F (at 4:51 PM)
Minimum temperature yesterday: 77 °F (at 5:59 AM)
Average temperature yesterday: 82 °F

Past Weeks' High & Low Weather Summary

 TemperatureHumidityPressure
High102 °F (Aug 16, 4:51 PM)94% (Aug 30, 6:51 AM)30.04 "Hg (Aug 30, 6:51 AM)
Low75 °F (Aug 23, 6:51 AM)26% (Aug 16, 4:51 PM)29.77 "Hg (Aug 29, 4:51 PM)
Average87 °F59%29.91 "Hg
* Reported Aug 15 11:51 AM — Aug 30 11:51 AM, Austin, Weather by CustomWeather, © 2014

Note: Actual official high and low records may vary slightly from our data, if they occured in-between our weather recording intervals... More about our weather records

Advertising

Austin weather history for previous 24 hours

 ConditionsComfort  
Time TempWeatherWind HumidityBarometerVisibility
11:51 AM
Aug 30
87 °FPassing clouds.3 mph61%29.92 "Hg10 mi
11:04 AM85 °FPassing clouds.No wind65%29.98 "Hg10 mi
10:51 AM83 °FPartly sunny.No wind70%29.94 "Hg10 mi
9:51 AM80 °FOvercast.No wind79%29.93 "Hg10 mi
8:51 AM77 °FOvercast.No wind88%29.93 "Hg10 mi
7:51 AM76 °FPassing clouds.No wind91%29.92 "Hg10 mi
6:51 AM75 °FPassing clouds.No wind94%29.90 "Hg10 mi
5:51 AM76 °FPassing clouds.No wind91%29.88 "Hg10 mi
4:51 AM76 °FOvercast.No wind91%29.89 "Hg10 mi
3:51 AM76 °FMostly cloudy.3 mph91%29.90 "Hg10 mi
2:51 AM76 °FClear.No wind91%29.89 "Hg10 mi
2:01 AM77 °FMostly cloudy.5 mph88%29.94 "Hg10 mi
12:51 AM77 °FClear.5 mph85%29.90 "Hg10 mi
11:51 PM
Aug 29
78 °FClear.3 mph82%29.88 "Hg10 mi
10:51 PM79 °FClear.5 mph77%29.89 "Hg10 mi
9:51 PM78 °FClear.3 mph82%29.88 "Hg10 mi
8:51 PM78 °FSunny.No wind79%29.85 "Hg10 mi
7:51 PM78 °FSunny.3 mph82%29.80 "Hg10 mi
6:51 PM78 °FScattered clouds.6 mph84%29.82 "Hg10 mi
5:51 PM86 °FThunderstorms. Partly sunny.10 mph59%29.82 "Hg10 mi
4:51 PM95 °FSunny.9 mph40%29.77 "Hg10 mi
3:51 PM94 °FSunny.9 mph44%29.78 "Hg10 mi
1:51 PM93 °FScattered clouds.3 mph47%29.83 "Hg10 mi
Weather by CustomWeather, © 2014

See weather overviewHow to use our weather pages